Year,Month,Day,Hour,Minute,Value (Times are PST for temperature in C)
2012,10,08,00,00,12.00
2012,10,08,00,02,11.90
2012,10,08,00,03,11.70
2012,10,08,00,04,11.70
2012,10,08,00,05,11.60
2012,10,08,00,06,11.40
2012,10,08,00,07,11.40
2012,10,08,00,09,11.30
2012,10,08,00,10,11.20
2012,10,08,00,11,11.20
2012,10,08,00,12,11.10
2012,10,08,00,14,11.00
2012,10,08,00,15,10.90
2012,10,08,00,16,10.80
2012,10,08,00,17,10.80
2012,10,08,00,18,10.80
2012,10,08,00,20,10.70
2012,10,08,00,21,10.70
2012,10,08,00,22,10.70
2012,10,08,00,23,10.60
2012,10,08,00,24,10.70
2012,10,08,00,26,10.70
2012,10,08,00,27,10.70
2012,10,08,00,28,10.80
2012,10,08,00,30,10.80
2012,10,08,00,31,10.80
2012,10,08,00,32,10.80
2012,10,08,00,33,10.80
2012,10,08,00,34,10.80
2012,10,08,00,36,10.80
2012,10,08,00,37,10.70
2012,10,08,00,38,10.70
2012,10,08,00,39,10.60
2012,10,08,00,41,10.60
2012,10,08,00,42,10.40
2012,10,08,00,43,10.40
2012,10,08,00,44,10.40
2012,10,08,00,46,10.40
2012,10,08,00,47,10.40
2012,10,08,00,48,10.40
2012,10,08,00,49,10.40
2012,10,08,00,51,10.40
2012,10,08,00,52,10.40
2012,10,08,00,53,10.40
2012,10,08,00,55,10.40
2012,10,08,00,56,10.40
2012,10,08,00,57,10.40
2012,10,08,00,58,10.30
2012,10,08,01,00,10.30
2012,10,08,01,01,10.30
2012,10,08,01,02,10.30
2012,10,08,01,03,10.30
2012,10,08,01,04,10.30
2012,10,08,01,06,10.30
2012,10,08,01,07,10.40
2012,10,08,01,08,10.40
2012,10,08,01,09,10.50
2012,10,08,01,11,10.50
2012,10,08,01,12,10.60
2012,10,08,01,13,10.60
2012,10,08,01,15,10.60
2012,10,08,01,16,10.50
2012,10,08,01,17,10.50
2012,10,08,01,18,10.50
2012,10,08,01,19,10.40
2012,10,08,01,20,10.40
2012,10,08,01,21,10.40
2012,10,08,01,22,10.30
2012,10,08,01,23,10.30
2012,10,08,01,24,10.20
2012,10,08,01,26,10.10
2012,10,08,01,27,10.00
2012,10,08,01,28,9.90
2012,10,08,01,29,9.90
2012,10,08,01,30,9.80
2012,10,08,01,31,9.80
2012,10,08,01,32,9.80
2012,10,08,01,33,9.80
2012,10,08,01,35,9.80
2012,10,08,01,36,9.90
2012,10,08,01,37,9.90
2012,10,08,01,39,9.90
2012,10,08,01,40,9.90
2012,10,08,01,41,9.90
2012,10,08,01,42,9.90
2012,10,08,01,43,9.90
2012,10,08,01,45,9.90
2012,10,08,01,46,9.90
2012,10,08,01,47,9.90
2012,10,08,01,49,9.90
2012,10,08,01,50,9.90
2012,10,08,01,51,9.80
2012,10,08,01,52,9.80
2012,10,08,01,53,9.80
2012,10,08,01,54,9.80
2012,10,08,01,55,9.80
2012,10,08,01,57,9.80
2012,10,08,01,58,9.80
2012,10,08,01,59,9.80
2012,10,08,02,00,9.80
2012,10,08,02,01,9.70
2012,10,08,02,02,9.70
2012,10,08,02,03,9.80
2012,10,08,02,04,9.70
2012,10,08,02,05,9.70
2012,10,08,02,06,9.80
2012,10,08,02,08,9.80
2012,10,08,02,09,9.80
2012,10,08,02,10,9.70
2012,10,08,02,11,9.70
2012,10,08,02,13,9.70
2012,10,08,02,14,9.70
2012,10,08,02,15,9.70
2012,10,08,02,16,9.70
2012,10,08,02,17,9.70
2012,10,08,02,18,9.70
2012,10,08,02,19,9.70
2012,10,08,02,20,9.80
2012,10,08,02,22,9.80
2012,10,08,02,23,9.90
2012,10,08,02,24,9.90
2012,10,08,02,25,10.00
2012,10,08,02,27,10.10
2012,10,08,02,28,10.10
2012,10,08,02,29,10.10
2012,10,08,02,31,10.20
2012,10,08,02,32,10.20
2012,10,08,02,33,10.30
2012,10,08,02,34,10.30
2012,10,08,02,35,10.30
2012,10,08,02,37,10.30
2012,10,08,02,38,10.30
2012,10,08,02,39,10.30
2012,10,08,02,40,10.30
2012,10,08,02,42,10.30
2012,10,08,02,43,10.30
2012,10,08,02,44,10.30
2012,10,08,02,45,10.30
2012,10,08,02,47,10.30
2012,10,08,02,48,10.30
2012,10,08,02,49,10.30
2012,10,08,02,50,10.30
2012,10,08,02,51,10.30
2012,10,08,02,53,10.30
2012,10,08,02,54,10.30
2012,10,08,02,55,10.30
2012,10,08,02,56,10.30
2012,10,08,02,58,10.30
2012,10,08,02,59,10.30
2012,10,08,03,00,10.30
2012,10,08,03,01,10.30
2012,10,08,03,02,10.30
2012,10,08,03,03,10.30
2012,10,08,03,04,10.30
2012,10,08,03,05,10.30
2012,10,08,03,06,10.30
2012,10,08,03,07,10.30
2012,10,08,03,08,10.30
2012,10,08,03,09,10.30
2012,10,08,03,10,10.30
2012,10,08,03,11,10.30
2012,10,08,03,12,10.30
2012,10,08,03,13,10.30
2012,10,08,03,14,10.30
2012,10,08,03,15,10.30
2012,10,08,03,16,10.30
2012,10,08,03,17,10.30
2012,10,08,03,18,10.30
2012,10,08,03,19,10.30
2012,10,08,03,20,10.30
2012,10,08,03,21,10.30
2012,10,08,03,23,10.30
2012,10,08,03,24,10.30
2012,10,08,03,25,10.30
2012,10,08,03,26,10.30
2012,10,08,03,27,10.30
2012,10,08,03,29,10.30
2012,10,08,03,30,10.30
2012,10,08,03,31,10.30
2012,10,08,03,32,10.30
2012,10,08,03,33,10.30
2012,10,08,03,34,10.30
2012,10,08,03,35,10.30
2012,10,08,03,36,10.30
2012,10,08,03,37,10.30
2012,10,08,03,39,10.30
2012,10,08,03,40,10.30
2012,10,08,03,41,10.30
2012,10,08,03,42,10.30
2012,10,08,03,43,10.30
2012,10,08,03,45,10.30
2012,10,08,03,46,10.30
2012,10,08,03,47,10.30
2012,10,08,03,48,10.30
2012,10,08,03,49,10.30
2012,10,08,03,51,10.30
2012,10,08,03,52,10.30
2012,10,08,03,53,10.30
2012,10,08,03,54,10.30
2012,10,08,03,55,10.30
2012,10,08,03,56,10.30
2012,10,08,03,58,10.30
2012,10,08,03,59,9.90
2012,10,08,04,00,9.90
2012,10,08,04,01,9.90
2012,10,08,04,02,9.90
2012,10,08,04,03,9.90
2012,10,08,04,05,9.80
2012,10,08,04,06,9.80
2012,10,08,04,07,9.70
2012,10,08,04,08,9.70
2012,10,08,04,09,9.60
2012,10,08,04,10,9.60
2012,10,08,04,11,9.50
2012,10,08,04,13,9.40
2012,10,08,04,14,9.30
2012,10,08,04,15,9.30
2012,10,08,04,16,9.30
2012,10,08,04,17,9.30
2012,10,08,04,18,9.30
2012,10,08,04,19,9.20
2012,10,08,04,20,9.10
2012,10,08,04,21,9.00
2012,10,08,04,23,8.90
2012,10,08,04,24,8.80
2012,10,08,04,25,8.80
2012,10,08,04,26,8.70
2012,10,08,04,28,8.60
2012,10,08,04,29,8.60
2012,10,08,04,30,8.50
2012,10,08,04,31,8.50
2012,10,08,04,33,8.50
2012,10,08,04,34,8.50
2012,10,08,04,35,8.50
2012,10,08,04,36,8.50
2012,10,08,04,37,8.50
2012,10,08,04,38,8.40
2012,10,08,04,39,8.40
2012,10,08,04,40,8.40
2012,10,08,04,41,8.40
2012,10,08,04,42,8.40
2012,10,08,04,43,8.40
2012,10,08,04,44,8.40
2012,10,08,04,45,8.40
2012,10,08,04,46,8.40
2012,10,08,04,47,8.40
2012,10,08,04,48,8.40
2012,10,08,04,49,8.40
2012,10,08,04,50,8.40
2012,10,08,04,52,8.40
2012,10,08,04,53,8.50
2012,10,08,04,54,8.50
2012,10,08,04,55,8.50
2012,10,08,04,56,8.50
2012,10,08,04,57,8.40
2012,10,08,04,58,8.40
2012,10,08,04,59,8.30
2012,10,08,05,00,8.30
2012,10,08,05,01,8.30
2012,10,08,05,02,8.30
2012,10,08,05,03,8.20
2012,10,08,05,04,8.20
2012,10,08,05,06,8.20
2012,10,08,05,07,8.20
2012,10,08,05,08,8.10
2012,10,08,05,09,8.10
2012,10,08,05,11,8.10
2012,10,08,05,12,8.10
2012,10,08,05,13,8.00
2012,10,08,05,14,8.00
2012,10,08,05,15,8.00
2012,10,08,05,16,8.00
2012,10,08,05,17,7.90
2012,10,08,05,18,8.00
2012,10,08,05,19,8.00
2012,10,08,05,21,8.00
2012,10,08,05,22,8.00
2012,10,08,05,23,8.00
2012,10,08,05,24,8.00
2012,10,08,05,25,8.10
2012,10,08,05,26,8.10
2012,10,08,05,27,8.10
2012,10,08,05,28,8.10
2012,10,08,05,29,8.10
2012,10,08,05,30,8.10
2012,10,08,05,31,8.10
2012,10,08,05,32,8.10
2012,10,08,05,33,8.10
2012,10,08,05,34,8.00
2012,10,08,05,35,8.00
2012,10,08,05,36,7.90
2012,10,08,05,38,7.90
2012,10,08,05,39,7.90
2012,10,08,05,40,7.80
2012,10,08,05,41,7.80
2012,10,08,05,43,7.80
2012,10,08,05,44,7.80
2012,10,08,05,45,7.80
2012,10,08,05,46,7.80
2012,10,08,05,48,7.80
2012,10,08,05,49,7.80
2012,10,08,05,50,7.90
2012,10,08,05,52,7.90
2012,10,08,05,53,7.90
2012,10,08,05,54,8.00
2012,10,08,05,55,8.00
2012,10,08,05,56,8.10
2012,10,08,05,57,8.10
2012,10,08,05,58,8.10
2012,10,08,05,59,8.10
2012,10,08,06,00,8.10
2012,10,08,06,01,8.10
2012,10,08,06,02,8.10
2012,10,08,06,03,8.10
2012,10,08,06,04,8.20
2012,10,08,06,05,8.20
2012,10,08,06,06,8.20
2012,10,08,06,07,8.20
2012,10,08,06,08,8.20
2012,10,08,06,10,8.20
2012,10,08,06,11,8.30
2012,10,08,06,12,8.30
2012,10,08,06,13,8.30
2012,10,08,06,15,8.30
2012,10,08,06,16,8.40
2012,10,08,06,17,8.50
2012,10,08,06,19,8.60
2012,10,08,06,20,8.60
2012,10,08,06,21,8.70
2012,10,08,06,22,8.70
2012,10,08,06,23,8.70
2012,10,08,06,24,8.70
2012,10,08,06,25,8.70
2012,10,08,06,26,8.70
2012,10,08,06,28,8.80
2012,10,08,06,29,8.80
2012,10,08,06,30,8.80
2012,10,08,06,31,8.80
2012,10,08,06,32,8.90
2012,10,08,06,34,8.90
2012,10,08,06,35,8.90
2012,10,08,06,36,9.00
2012,10,08,06,37,9.10
2012,10,08,06,38,9.10
2012,10,08,06,39,9.10
2012,10,08,06,40,9.10
2012,10,08,06,41,9.20
2012,10,08,06,42,9.20
2012,10,08,06,43,9.20
2012,10,08,06,45,9.20
2012,10,08,06,46,9.20
2012,10,08,06,47,9.20
2012,10,08,06,48,9.20
2012,10,08,06,49,9.20
2012,10,08,06,50,9.20
2012,10,08,06,51,9.10
2012,10,08,06,52,9.10
2012,10,08,06,53,9.00
2012,10,08,06,54,9.00
2012,10,08,06,55,8.90
2012,10,08,06,56,8.80
2012,10,08,06,58,8.80
2012,10,08,06,59,8.70
2012,10,08,07,00,8.70
2012,10,08,07,01,8.60
2012,10,08,07,02,8.60
2012,10,08,07,03,8.50
2012,10,08,07,04,8.40
2012,10,08,07,05,8.40
2012,10,08,07,06,8.30
2012,10,08,07,07,8.30
2012,10,08,07,08,8.30
2012,10,08,07,09,8.20
2012,10,08,07,10,8.20
2012,10,08,07,11,8.20
2012,10,08,07,12,8.20
2012,10,08,07,14,8.10
2012,10,08,07,15,8.10
2012,10,08,07,16,8.10
2012,10,08,07,18,8.00
2012,10,08,07,19,7.90
2012,10,08,07,20,7.90
2012,10,08,07,21,7.80
2012,10,08,07,22,7.80
2012,10,08,07,23,7.80
2012,10,08,07,24,7.80
2012,10,08,07,25,7.70
2012,10,08,07,26,7.70
2012,10,08,07,27,7.70
2012,10,08,07,28,7.70
2012,10,08,07,29,7.60
2012,10,08,07,30,7.60
2012,10,08,07,31,7.60
2012,10,08,07,33,7.50
2012,10,08,07,34,7.40
2012,10,08,07,35,7.40
2012,10,08,07,36,7.40
2012,10,08,07,38,7.40
2012,10,08,07,39,7.40
2012,10,08,07,40,7.30
2012,10,08,07,41,7.30
2012,10,08,07,43,7.30
2012,10,08,07,44,7.30
2012,10,08,07,45,7.20
2012,10,08,07,46,7.20
2012,10,08,07,47,7.20
2012,10,08,07,48,7.20
2012,10,08,07,49,7.20
2012,10,08,07,50,7.20
2012,10,08,07,51,7.20
2012,10,08,07,52,7.20
2012,10,08,07,53,7.20
2012,10,08,07,54,7.20
2012,10,08,07,55,7.20
2012,10,08,07,57,7.20
2012,10,08,07,58,7.10
2012,10,08,07,59,7.20
2012,10,08,08,00,7.10
2012,10,08,08,02,7.20
2012,10,08,08,03,7.20
2012,10,08,08,04,7.20
2012,10,08,08,05,7.10
2012,10,08,08,07,7.20
2012,10,08,08,08,7.10
2012,10,08,08,09,7.10
2012,10,08,08,10,7.20
2012,10,08,08,11,7.10
2012,10,08,08,12,7.20
2012,10,08,08,13,7.20
2012,10,08,08,14,7.20
2012,10,08,08,15,7.30
2012,10,08,08,16,7.30
2012,10,08,08,17,7.30
2012,10,08,08,18,7.40
2012,10,08,08,19,7.60
2012,10,08,08,20,7.70
2012,10,08,08,22,7.80
2012,10,08,08,23,8.00
2012,10,08,08,24,8.10
2012,10,08,08,25,8.30
2012,10,08,08,26,8.30
2012,10,08,08,27,8.50
2012,10,08,08,28,8.70
2012,10,08,08,29,8.80
2012,10,08,08,31,9.00
2012,10,08,08,32,9.20
2012,10,08,08,33,9.30
2012,10,08,08,34,9.40
2012,10,08,08,36,9.60
2012,10,08,08,37,9.70
2012,10,08,08,38,9.80
2012,10,08,08,40,9.90
2012,10,08,08,41,10.10
2012,10,08,08,42,10.20
2012,10,08,08,43,10.30
2012,10,08,08,44,10.40
2012,10,08,08,45,10.50
2012,10,08,08,46,10.60
2012,10,08,08,47,10.80
2012,10,08,08,48,10.90
2012,10,08,08,49,10.90
2012,10,08,08,50,11.10
2012,10,08,08,51,11.20
2012,10,08,08,53,11.20
2012,10,08,08,54,11.30
2012,10,08,08,55,11.40
2012,10,08,08,56,11.50
2012,10,08,08,58,11.60
2012,10,08,08,59,11.70
2012,10,08,09,00,11.70
2012,10,08,09,01,11.70
2012,10,08,09,02,11.70
2012,10,08,09,04,11.80
2012,10,08,09,05,11.90
2012,10,08,09,06,11.90
2012,10,08,09,07,11.90
2012,10,08,09,08,11.90
2012,10,08,09,10,11.90
2012,10,08,09,11,12.00
2012,10,08,09,12,12.00
2012,10,08,09,13,12.00
2012,10,08,09,15,12.00
2012,10,08,09,16,12.10
2012,10,08,09,17,12.10
2012,10,08,09,18,12.10
2012,10,08,09,20,12.10
2012,10,08,09,21,12.20
2012,10,08,09,22,12.20
2012,10,08,09,23,12.20
2012,10,08,09,25,12.20
2012,10,08,09,26,12.30
2012,10,08,09,27,12.30
2012,10,08,09,29,12.40
2012,10,08,09,30,12.50
2012,10,08,09,31,12.60
2012,10,08,09,32,12.60
2012,10,08,09,33,12.70
2012,10,08,09,34,12.70
2012,10,08,09,35,12.80
2012,10,08,09,36,12.90
2012,10,08,09,37,12.90
2012,10,08,09,38,13.00
2012,10,08,09,39,13.10
2012,10,08,09,40,13.10
2012,10,08,09,41,13.10
2012,10,08,09,43,13.20
2012,10,08,09,44,13.20
2012,10,08,09,45,13.30
2012,10,08,09,46,13.30
2012,10,08,09,47,13.30
2012,10,08,09,48,13.40
2012,10,08,09,49,13.40
2012,10,08,09,50,13.40
2012,10,08,09,51,13.40
2012,10,08,09,52,13.50
2012,10,08,09,54,13.60
2012,10,08,09,55,13.70
2012,10,08,09,56,13.70
2012,10,08,09,57,13.80
2012,10,08,09,58,13.90
2012,10,08,09,59,14.00
2012,10,08,10,00,14.10
2012,10,08,10,01,14.30
2012,10,08,10,02,14.40
2012,10,08,10,03,14.40
2012,10,08,10,04,14.40
2012,10,08,10,05,14.50
2012,10,08,10,06,14.40
2012,10,08,10,07,14.40
2012,10,08,10,08,14.40
2012,10,08,10,09,14.40
2012,10,08,10,10,14.40
2012,10,08,10,11,14.40
2012,10,08,10,12,14.40
2012,10,08,10,13,14.50
2012,10,08,10,14,14.60
2012,10,08,10,15,14.60
2012,10,08,10,16,14.70
2012,10,08,10,17,14.70
2012,10,08,10,19,14.70
2012,10,08,10,20,14.60
2012,10,08,10,21,14.60
2012,10,08,10,22,14.60
2012,10,08,10,23,14.60
2012,10,08,10,24,14.60
2012,10,08,10,25,14.60
2012,10,08,10,26,14.70
2012,10,08,10,27,14.80
2012,10,08,10,28,14.90
2012,10,08,10,29,14.90
2012,10,08,10,30,15.00
2012,10,08,10,32,15.10
2012,10,08,10,33,15.10
2012,10,08,10,34,15.10
2012,10,08,10,36,15.10
2012,10,08,10,37,15.10
2012,10,08,10,38,15.20
2012,10,08,10,39,15.20
2012,10,08,10,41,15.20
2012,10,08,10,42,15.30
2012,10,08,10,43,15.30
2012,10,08,10,44,15.30
2012,10,08,10,46,15.40
2012,10,08,10,47,15.60
2012,10,08,10,48,15.70
2012,10,08,10,50,15.80
2012,10,08,10,51,16.10
2012,10,08,10,52,16.20
2012,10,08,10,53,16.20
2012,10,08,10,55,16.30
2012,10,08,10,56,16.30
2012,10,08,10,57,16.40
2012,10,08,10,58,16.40
2012,10,08,11,00,16.30
2012,10,08,11,01,16.40
2012,10,08,11,02,16.40
2012,10,08,11,03,16.30
2012,10,08,11,05,16.30
2012,10,08,11,06,16.20
2012,10,08,11,07,16.20
2012,10,08,11,08,16.10
2012,10,08,11,10,16.00
2012,10,08,11,11,15.90
2012,10,08,11,12,15.90
2012,10,08,11,13,15.90
2012,10,08,11,15,15.90
2012,10,08,11,16,15.90
2012,10,08,11,17,16.00
2012,10,08,11,18,16.10
2012,10,08,11,20,16.10
2012,10,08,11,21,16.10
2012,10,08,11,22,16.20
2012,10,08,11,23,16.20
2012,10,08,11,25,16.30
2012,10,08,11,26,16.30
2012,10,08,11,27,16.40
2012,10,08,11,28,16.50
2012,10,08,11,30,16.60
2012,10,08,11,31,16.70
2012,10,08,11,32,16.80
2012,10,08,11,33,16.80
2012,10,08,11,34,16.80
2012,10,08,11,36,16.80
2012,10,08,11,37,16.90
2012,10,08,11,38,16.90
2012,10,08,11,39,16.90
2012,10,08,11,41,16.90
2012,10,08,11,42,17.00
2012,10,08,11,43,17.10
2012,10,08,11,45,17.10
2012,10,08,11,46,17.20
2012,10,08,11,47,17.30
2012,10,08,11,48,17.30
2012,10,08,11,50,17.40
2012,10,08,11,51,17.50
2012,10,08,11,52,17.60
2012,10,08,11,53,17.70
2012,10,08,11,55,17.70
2012,10,08,11,56,17.80
2012,10,08,11,57,17.80
2012,10,08,11,58,17.80
2012,10,08,11,59,17.80
2012,10,08,12,00,17.70
2012,10,08,12,01,17.70
2012,10,08,12,02,17.70
2012,10,08,12,03,17.70
2012,10,08,12,04,17.70
2012,10,08,12,05,17.70
2012,10,08,12,06,17.80
2012,10,08,12,07,17.80
2012,10,08,12,09,17.80
2012,10,08,12,10,17.80
2012,10,08,12,11,17.80
2012,10,08,12,12,17.90
2012,10,08,12,13,17.90
2012,10,08,12,15,17.90
2012,10,08,12,16,18.00
2012,10,08,12,17,18.10
2012,10,08,12,18,18.10
2012,10,08,12,19,18.00
2012,10,08,12,20,18.00
2012,10,08,12,21,18.00
2012,10,08,12,22,18.00
2012,10,08,12,23,18.00
2012,10,08,12,24,18.00
2012,10,08,12,26,18.10
2012,10,08,12,27,18.20
2012,10,08,12,28,18.20
2012,10,08,12,29,18.30
2012,10,08,12,30,18.30
2012,10,08,12,31,18.30
2012,10,08,12,32,18.40
2012,10,08,12,33,18.40
2012,10,08,12,34,18.40
2012,10,08,12,35,18.40
2012,10,08,12,36,18.50
2012,10,08,12,37,18.50
2012,10,08,12,38,18.60
2012,10,08,12,39,18.60
2012,10,08,12,41,18.60
2012,10,08,12,42,18.60
2012,10,08,12,43,18.60
2012,10,08,12,44,18.60
2012,10,08,12,45,18.60
2012,10,08,12,46,18.60
2012,10,08,12,47,18.60
2012,10,08,12,48,18.60
2012,10,08,12,49,18.60
2012,10,08,12,50,18.60
2012,10,08,12,51,18.60
2012,10,08,12,52,18.60
2012,10,08,12,53,18.60
2012,10,08,12,55,18.70
2012,10,08,12,56,18.70
2012,10,08,12,57,18.80
2012,10,08,12,58,18.80
2012,10,08,12,59,18.80
2012,10,08,13,00,18.80
2012,10,08,13,01,18.90
2012,10,08,13,02,19.00
2012,10,08,13,03,19.10
2012,10,08,13,05,19.20
2012,10,08,13,06,19.20
2012,10,08,13,07,19.30
2012,10,08,13,08,19.40
2012,10,08,13,10,19.40
2012,10,08,13,11,19.50
2012,10,08,13,12,19.60
2012,10,08,13,13,19.60
2012,10,08,13,14,19.70
2012,10,08,13,16,19.70
2012,10,08,13,17,19.70
2012,10,08,13,18,19.70
2012,10,08,13,19,19.70
2012,10,08,13,20,19.70
2012,10,08,13,21,19.70
2012,10,08,13,22,19.60
2012,10,08,13,23,19.60
2012,10,08,13,24,19.60
2012,10,08,13,25,19.60
2012,10,08,13,26,19.40
2012,10,08,13,27,19.30
2012,10,08,13,28,19.20
2012,10,08,13,29,19.10
2012,10,08,13,30,19.10
2012,10,08,13,31,18.90
2012,10,08,13,32,18.80
2012,10,08,13,33,18.70
2012,10,08,13,34,18.70
2012,10,08,13,36,18.60
2012,10,08,13,37,18.50
2012,10,08,13,38,18.50
2012,10,08,13,39,18.40
2012,10,08,13,40,18.40
2012,10,08,13,41,18.40
2012,10,08,13,42,18.40
2012,10,08,13,43,18.40
2012,10,08,13,44,18.50
2012,10,08,13,45,18.50
2012,10,08,13,46,18.60
2012,10,08,13,47,18.60
2012,10,08,13,48,18.60
2012,10,08,13,49,18.50
2012,10,08,13,50,18.50
2012,10,08,13,52,18.60
2012,10,08,13,53,18.60
2012,10,08,13,54,18.60
2012,10,08,13,55,18.70
2012,10,08,13,57,18.70
2012,10,08,13,58,18.70
2012,10,08,13,59,18.60
2012,10,08,14,00,18.40
2012,10,08,14,01,18.40
2012,10,08,14,02,18.40
2012,10,08,14,03,18.40
2012,10,08,14,04,18.40
2012,10,08,14,05,18.40
2012,10,08,14,06,18.40
2012,10,08,14,07,18.40
2012,10,08,14,08,18.60
2012,10,08,14,09,18.60
2012,10,08,14,10,18.70
2012,10,08,14,11,18.80
2012,10,08,14,12,18.80
2012,10,08,14,13,18.90
2012,10,08,14,14,18.90
2012,10,08,14,15,19.00
2012,10,08,14,16,19.10
2012,10,08,14,17,19.20
2012,10,08,14,18,19.20
2012,10,08,14,19,19.20
2012,10,08,14,20,19.20
2012,10,08,14,21,19.20
2012,10,08,14,23,19.10
2012,10,08,14,24,19.10
2012,10,08,14,25,19.10
2012,10,08,14,26,19.10
2012,10,08,14,27,19.10
2012,10,08,14,28,19.10
2012,10,08,14,29,19.00
2012,10,08,14,30,19.00
2012,10,08,14,31,19.00
2012,10,08,14,33,19.00
2012,10,08,14,34,19.00
2012,10,08,14,35,19.10
2012,10,08,14,36,19.10
2012,10,08,14,37,19.20
2012,10,08,14,38,19.20
2012,10,08,14,39,19.30
2012,10,08,14,40,19.30
2012,10,08,14,42,19.40
2012,10,08,14,43,19.60
2012,10,08,14,44,19.60
2012,10,08,14,45,19.60
2012,10,08,14,46,19.70
2012,10,08,14,47,19.70
2012,10,08,14,48,19.80
2012,10,08,14,49,19.80
2012,10,08,14,50,19.90
2012,10,08,14,52,20.00
2012,10,08,14,53,20.20
2012,10,08,14,54,20.20
2012,10,08,14,55,20.30
2012,10,08,14,56,20.30
2012,10,08,14,57,20.40
2012,10,08,14,58,20.50
2012,10,08,14,59,20.60
2012,10,08,15,01,20.60
2012,10,08,15,02,20.70
2012,10,08,15,03,20.60
2012,10,08,15,05,20.60
2012,10,08,15,06,20.60
2012,10,08,15,07,20.60
2012,10,08,15,08,20.60
2012,10,08,15,10,20.60
2012,10,08,15,11,20.60
2012,10,08,15,12,20.70
2012,10,08,15,13,20.70
2012,10,08,15,14,20.70
2012,10,08,15,16,20.60
2012,10,08,15,17,20.40
2012,10,08,15,18,20.40
2012,10,08,15,19,20.30
2012,10,08,15,21,20.20
2012,10,08,15,22,20.10
2012,10,08,15,23,20.10
2012,10,08,15,24,20.10
2012,10,08,15,26,20.10
2012,10,08,15,27,20.10
2012,10,08,15,28,20.10
2012,10,08,15,29,20.10
2012,10,08,15,30,20.00
2012,10,08,15,32,19.90
2012,10,08,15,33,19.80
2012,10,08,15,34,19.70
2012,10,08,15,35,19.60
2012,10,08,15,36,19.40
2012,10,08,15,38,19.40
2012,10,08,15,39,19.30
2012,10,08,15,40,19.20
2012,10,08,15,41,19.00
2012,10,08,15,42,18.90
2012,10,08,15,44,18.80
2012,10,08,15,45,18.70
2012,10,08,15,46,18.70
2012,10,08,15,47,18.60
2012,10,08,15,49,18.50
2012,10,08,15,50,18.30
2012,10,08,15,51,18.30
2012,10,08,15,52,18.20
2012,10,08,15,53,18.20
2012,10,08,15,55,18.10
2012,10,08,15,56,18.10
2012,10,08,15,57,18.10
2012,10,08,15,58,17.90
2012,10,08,15,59,18.00
2012,10,08,16,01,18.10
2012,10,08,16,02,18.20
2012,10,08,16,03,18.30
2012,10,08,16,04,18.30
2012,10,08,16,06,18.30
2012,10,08,16,07,18.30
2012,10,08,16,08,18.20
2012,10,08,16,09,18.10
2012,10,08,16,10,18.10
2012,10,08,16,12,18.10
2012,10,08,16,13,18.10
2012,10,08,16,14,18.10
2012,10,08,16,15,18.20
2012,10,08,16,16,18.30
2012,10,08,16,17,18.30
2012,10,08,16,18,18.40
2012,10,08,16,19,18.50
2012,10,08,16,21,18.60
2012,10,08,16,22,18.60
2012,10,08,16,23,18.70
2012,10,08,16,25,18.70
2012,10,08,16,26,18.70
2012,10,08,16,27,18.70
2012,10,08,16,28,18.80
2012,10,08,16,30,18.80
2012,10,08,16,31,18.90
2012,10,08,16,32,18.90
2012,10,08,16,33,19.00
2012,10,08,16,35,19.10
2012,10,08,16,36,19.10
2012,10,08,16,37,19.10
2012,10,08,16,38,19.20
2012,10,08,16,39,19.20
2012,10,08,16,40,19.20
2012,10,08,16,41,19.10
2012,10,08,16,42,18.90
2012,10,08,16,44,18.80
2012,10,08,16,45,18.70
2012,10,08,16,46,18.60
2012,10,08,16,47,18.60
2012,10,08,16,49,18.60
2012,10,08,16,50,18.70
2012,10,08,16,51,18.70
2012,10,08,16,52,18.70
2012,10,08,16,54,18.70
2012,10,08,16,55,18.80
2012,10,08,16,56,18.80
2012,10,08,16,57,18.90
2012,10,08,16,58,19.00
2012,10,08,16,59,19.10
2012,10,08,17,00,19.10
2012,10,08,17,01,19.20
2012,10,08,17,02,19.20
2012,10,08,17,04,19.20
2012,10,08,17,05,19.20
2012,10,08,17,06,19.20
2012,10,08,17,07,19.20
2012,10,08,17,08,19.20
2012,10,08,17,09,19.20
2012,10,08,17,10,19.20
2012,10,08,17,11,19.10
2012,10,08,17,13,19.10
2012,10,08,17,14,18.90
2012,10,08,17,15,18.90
2012,10,08,17,16,18.90
2012,10,08,17,18,18.90
2012,10,08,17,19,18.80
2012,10,08,17,20,18.80
2012,10,08,17,21,18.70
2012,10,08,17,22,18.60
2012,10,08,17,24,18.60
2012,10,08,17,25,18.50
2012,10,08,17,26,18.40
2012,10,08,17,27,18.30
2012,10,08,17,28,18.30
2012,10,08,17,30,18.30
2012,10,08,17,31,18.20
2012,10,08,17,32,18.20
2012,10,08,17,33,18.20
2012,10,08,17,34,18.20
2012,10,08,17,35,18.20
2012,10,08,17,36,18.10
2012,10,08,17,37,18.10
2012,10,08,17,38,18.00
2012,10,08,17,39,18.00
2012,10,08,17,40,17.90
2012,10,08,17,41,17.90
2012,10,08,17,42,17.90
2012,10,08,17,43,17.80
2012,10,08,17,44,17.80
2012,10,08,17,45,17.80
2012,10,08,17,46,17.70
2012,10,08,17,47,17.70
2012,10,08,17,48,17.70
2012,10,08,17,49,17.70
2012,10,08,17,50,17.60
2012,10,08,17,51,17.60
2012,10,08,17,52,17.60
2012,10,08,17,53,17.50
2012,10,08,17,54,17.40
2012,10,08,17,55,17.40
2012,10,08,17,56,17.30
2012,10,08,17,57,17.30
2012,10,08,17,59,17.20
2012,10,08,18,00,17.20
2012,10,08,18,01,17.20
2012,10,08,18,02,17.20
2012,10,08,18,04,17.10
2012,10,08,18,05,17.10
2012,10,08,18,06,17.10
2012,10,08,18,07,17.10
2012,10,08,18,08,17.10
2012,10,08,18,10,17.10
2012,10,08,18,11,17.00
2012,10,08,18,12,17.00
2012,10,08,18,13,16.90
2012,10,08,18,15,16.90
2012,10,08,18,16,16.80
2012,10,08,18,17,16.80
2012,10,08,18,18,16.80
2012,10,08,18,19,16.80
2012,10,08,18,20,16.80
2012,10,08,18,21,16.80
2012,10,08,18,22,16.70
2012,10,08,18,23,16.70
2012,10,08,18,24,16.70
2012,10,08,18,25,16.70
2012,10,08,18,26,16.60
2012,10,08,18,27,16.60
2012,10,08,18,29,16.50
2012,10,08,18,30,16.40
2012,10,08,18,31,16.30
2012,10,08,18,32,16.30
2012,10,08,18,34,16.30
2012,10,08,18,35,16.20
2012,10,08,18,36,16.10
2012,10,08,18,37,16.00
2012,10,08,18,38,15.90
2012,10,08,18,39,15.90
2012,10,08,18,40,15.90
2012,10,08,18,41,15.80
2012,10,08,18,42,15.80
2012,10,08,18,44,15.70
2012,10,08,18,45,15.70
2012,10,08,18,46,15.70
2012,10,08,18,47,15.60
2012,10,08,18,48,15.60
2012,10,08,18,50,15.60
2012,10,08,18,51,15.50
2012,10,08,18,52,15.40
2012,10,08,18,54,15.40
2012,10,08,18,55,15.30
2012,10,08,18,56,15.30
2012,10,08,18,58,15.30
2012,10,08,18,59,15.20
2012,10,08,19,00,15.10
2012,10,08,19,01,15.10
2012,10,08,19,03,15.10
2012,10,08,19,04,15.10
2012,10,08,19,05,15.00
2012,10,08,19,06,15.00
2012,10,08,19,08,15.00
2012,10,08,19,09,15.00
2012,10,08,19,10,14.90
2012,10,08,19,11,14.90
2012,10,08,19,13,14.90
2012,10,08,19,14,14.90
2012,10,08,19,15,14.90
2012,10,08,19,16,14.90
2012,10,08,19,18,14.80
2012,10,08,19,19,14.80
2012,10,08,19,20,14.80
2012,10,08,19,21,14.80
2012,10,08,19,22,14.80
2012,10,08,19,24,14.80
2012,10,08,19,25,14.80
2012,10,08,19,26,14.70
2012,10,08,19,27,14.70
2012,10,08,19,28,14.70
2012,10,08,19,30,14.70
2012,10,08,19,31,14.60
2012,10,08,19,32,14.60
2012,10,08,19,33,14.50
2012,10,08,19,34,14.40
2012,10,08,19,36,14.40
2012,10,08,19,37,14.30
2012,10,08,19,38,14.30
2012,10,08,19,39,14.30
2012,10,08,19,40,14.20
2012,10,08,19,42,14.20
2012,10,08,19,43,14.10
2012,10,08,19,44,14.10
2012,10,08,19,45,14.10
2012,10,08,19,46,14.10
2012,10,08,19,47,14.00
2012,10,08,19,48,13.90
2012,10,08,19,49,13.90
2012,10,08,19,50,13.80
2012,10,08,19,52,13.80
2012,10,08,19,53,13.70
2012,10,08,19,54,13.70
2012,10,08,19,55,13.60
2012,10,08,19,57,13.60
2012,10,08,19,58,13.40
2012,10,08,19,59,13.40
2012,10,08,20,00,13.30
2012,10,08,20,02,13.30
2012,10,08,20,03,13.20
2012,10,08,20,04,13.20
2012,10,08,20,05,13.10
2012,10,08,20,06,13.10
2012,10,08,20,07,13.10
2012,10,08,20,08,13.10
2012,10,08,20,09,13.10
2012,10,08,20,10,13.20
2012,10,08,20,11,13.20
2012,10,08,20,12,13.20